Time,TemperatureF,DewpointF,PressureIn,WindDirection,WindDirectionDegrees,WindSpeedMPH,WindSpeedGustMPH,Humidity,HourlyPrecipIn,Conditions,Clouds,dailyrainin,SolarRadiationWatts/m^2,SoftwareType,DateUTC
2013-02-11 00:00:00,45.7,38.6,30.13,SSE,168,0.0,2.0,76,0.02,,,0.02,0.00,VWS V14.01,2013-02-11 05:00:00,
2013-02-11 00:02:00,45.5,38.7,30.13,SSE,168,0.0,0.0,77,0.02,,,0.00,0.00,VWS V14.01,2013-02-11 05:02:00,
2013-02-11 00:07:00,45.4,38.6,30.13,SSE,168,0.0,0.0,77,0.02,,,0.00,0.00,VWS V14.01,2013-02-11 05:07:00,
2013-02-11 00:12:00,45.4,38.6,30.13,SSE,168,0.0,0.0,77,0.02,,,0.00,0.00,VWS V14.01,2013-02-11 05:12:00,
2013-02-11 00:17:00,45.2,38.8,30.13,SSE,168,3.0,4.0,78,0.01,,,0.00,0.00,VWS V14.01,2013-02-11 05:17:00,
2013-02-11 00:22:00,45.1,38.7,30.13,SSE,168,0.0,0.0,78,0.01,,,0.00,0.00,VWS V14.01,2013-02-11 05:22:00,
2013-02-11 00:27:00,44.9,38.8,30.13,SSE,168,0.0,0.0,79,0.01,,,0.00,0.00,VWS V14.01,2013-02-11 05:27:00,
2013-02-11 00:32:00,44.8,39.0,30.12,SSE,168,0.0,0.0,80,0.01,,,0.00,0.00,VWS V14.01,2013-02-11 05:32:00,
2013-02-11 00:37:00,44.8,39.0,30.12,SSE,168,0.0,0.0,80,0.01,,,0.00,0.00,VWS V14.01,2013-02-11 05:37:00,
2013-02-11 00:42:00,44.6,38.8,30.12,SSE,168,0.0,0.0,80,0.01,,,0.00,0.00,VWS V14.01,2013-02-11 05:42:00,
2013-02-11 00:47:00,44.5,38.7,30.11,SSE,168,0.0,1.0,80,0.01,,,0.00,0.00,VWS V14.01,2013-02-11 05:47:00,
2013-02-11 00:52:00,44.5,38.7,30.11,SSE,168,0.0,2.0,80,0.00,,,0.00,0.00,VWS V14.01,2013-02-11 05:52:00,
2013-02-11 00:57:00,44.5,38.7,30.11,South,173,0.0,4.0,80,0.00,,,0.00,0.00,VWS V14.01,2013-02-11 05:57:00,
2013-02-11 01:02:00,44.6,38.5,30.10,SSE,167,0.0,3.0,79,0.00,,,0.00,0.00,VWS V14.01,2013-02-11 06:02:00,
2013-02-11 01:07:00,44.6,38.5,30.10,SSE,167,0.0,0.0,79,0.00,,,0.00,0.00,VWS V14.01,2013-02-11 06:07:00,
2013-02-11 01:12:00,44.6,38.5,30.10,SE,139,0.0,2.0,79,0.00,,,0.00,0.00,VWS V14.01,2013-02-11 06:12:00,
2013-02-11 01:17:00,44.6,38.5,30.09,SE,139,0.0,0.0,79,0.00,,,0.00,0.00,VWS V14.01,2013-02-11 06:17:00,
2013-02-11 01:22:00,44.6,38.5,30.09,SE,140,2.0,2.0,79,0.00,,,0.00,0.00,VWS V14.01,2013-02-11 06:22:00,
2013-02-11 01:27:00,44.5,38.7,30.09,SSE,158,0.0,0.0,80,0.00,,,0.00,0.00,VWS V14.01,2013-02-11 06:27:00,
2013-02-11 01:32:00,44.5,38.7,30.08,SSE,158,0.0,0.0,80,0.00,,,0.00,0.00,VWS V14.01,2013-02-11 06:32:00,
2013-02-11 01:37:00,44.5,38.7,30.08,SSE,158,0.0,0.0,80,0.00,,,0.00,0.00,VWS V14.01,2013-02-11 06:37:00,
2013-02-11 01:42:00,44.5,38.7,30.08,SSE,158,0.0,0.0,80,0.00,,,0.00,0.00,VWS V14.01,2013-02-11 06:42:00,
2013-02-11 01:47:00,44.6,38.8,30.07,SSE,158,0.0,0.0,80,0.00,,,0.00,0.00,VWS V14.01,2013-02-11 06:47:00,
2013-02-11 01:52:00,44.6,38.8,30.07,SSE,158,0.0,0.0,80,0.00,,,0.00,0.00,VWS V14.01,2013-02-11 06:52:00,
2013-02-11 01:57:00,44.6,39.1,30.07,SSE,158,0.0,0.0,81,0.00,,,0.00,0.00,VWS V14.01,2013-02-11 06:57:00,
2013-02-11 02:02:00,44.6,39.1,30.07,SSE,158,0.0,2.0,81,0.00,,,0.00,0.00,VWS V14.01,2013-02-11 07:02:00,
2013-02-11 02:07:00,44.6,39.1,30.07,SSE,158,0.0,0.0,81,0.00,,,0.00,0.00,VWS V14.01,2013-02-11 07:07:00,
2013-02-11 02:12:00,44.8,39.3,30.07,SSE,158,0.0,0.0,81,0.00,,,0.00,0.00,VWS V14.01,2013-02-11 07:12:00,
2013-02-11 02:17:00,44.8,39.7,30.07,SSE,158,0.0,0.0,82,0.00,,,0.00,0.00,VWS V14.01,2013-02-11 07:17:00,
2013-02-11 02:22:00,44.8,39.7,30.07,SSE,158,0.0,0.0,82,0.00,,,0.00,0.00,VWS V14.01,2013-02-11 07:22:00,
2013-02-11 02:27:00,44.8,39.7,30.07,SSE,158,0.0,0.0,82,0.00,,,0.00,0.00,VWS V14.01,2013-02-11 07:27:00,
2013-02-11 02:32:00,44.9,40.1,30.06,SSE,158,0.0,0.0,83,0.00,,,0.00,0.00,VWS V14.01,2013-02-11 07:32:00,
2013-02-11 02:37:00,44.9,40.1,30.06,SSE,158,0.0,0.0,83,0.00,,,0.00,0.00,VWS V14.01,2013-02-11 07:37:00,
2013-02-11 02:42:00,45.1,40.6,30.06,SSE,158,0.0,0.0,84,0.00,,,0.00,0.00,VWS V14.01,2013-02-11 07:42:00,
2013-02-11 02:47:00,45.1,40.6,30.06,SSE,158,0.0,0.0,84,0.00,,,0.00,0.00,VWS V14.01,2013-02-11 07:47:00,
2013-02-11 02:52:00,45.1,40.6,30.06,SSE,158,0.0,0.0,84,0.00,,,0.00,0.00,VWS V14.01,2013-02-11 07:52:00,
2013-02-11 02:57:00,45.1,40.6,30.06,SSE,158,0.0,0.0,84,0.00,,,0.00,0.00,VWS V14.01,2013-02-11 07:57:00,
2013-02-11 03:02:00,45.1,40.6,30.06,SSE,158,0.0,0.0,84,0.00,,,0.00,0.00,VWS V14.01,2013-02-11 08:02:00,
2013-02-11 03:07:00,45.1,40.6,30.06,SSE,158,0.0,0.0,84,0.00,,,0.00,0.00,VWS V14.01,2013-02-11 08:07:00,
2013-02-11 03:12:00,45.2,41.0,30.06,SSE,158,0.0,0.0,85,0.00,,,0.00,0.00,VWS V14.01,2013-02-11 08:12:00,
2013-02-11 03:17:00,45.2,41.0,30.05,SSE,158,0.0,0.0,85,0.00,,,0.00,0.00,VWS V14.01,2013-02-11 08:17:00,
2013-02-11 03:22:00,45.2,41.0,30.05,SSE,158,0.0,0.0,85,0.00,,,0.00,0.00,VWS V14.01,2013-02-11 08:22:00,
2013-02-11 03:27:00,45.2,41.0,30.05,SSE,158,0.0,0.0,85,0.00,,,0.00,0.00,VWS V14.01,2013-02-11 08:27:00,
2013-02-11 03:32:00,45.1,40.9,30.04,SSE,158,0.0,0.0,85,0.00,,,0.00,0.00,VWS V14.01,2013-02-11 08:32:00,
2013-02-11 03:37:00,45.1,40.9,30.04,SSE,158,0.0,0.0,85,0.00,,,0.00,0.00,VWS V14.01,2013-02-11 08:37:00,
2013-02-11 03:42:00,45.1,40.9,30.04,SSE,158,0.0,0.0,85,0.00,,,0.00,0.00,VWS V14.01,2013-02-11 08:42:00,
2013-02-11 03:47:00,45.1,40.9,30.03,SSE,158,0.0,0.0,85,0.00,,,0.00,0.00,VWS V14.01,2013-02-11 08:47:00,
2013-02-11 03:52:00,45.1,40.9,30.03,SSE,158,0.0,0.0,85,0.00,,,0.00,0.00,VWS V14.01,2013-02-11 08:52:00,
2013-02-11 03:57:00,45.1,41.2,30.03,SSE,158,0.0,0.0,86,0.00,,,0.00,0.00,VWS V14.01,2013-02-11 08:57:00,
2013-02-11 04:02:00,45.2,41.3,30.01,SSE,158,0.0,0.0,86,0.00,,,0.00,0.00,VWS V14.01,2013-02-11 09:02:00,
2013-02-11 04:07:00,45.2,41.3,30.01,SSE,158,0.0,0.0,86,0.00,,,0.00,0.00,VWS V14.01,2013-02-11 09:07:00,
2013-02-11 04:12:00,45.2,41.3,30.01,SSE,158,0.0,0.0,86,0.00,,,0.00,0.00,VWS V14.01,2013-02-11 09:12:00,
2013-02-11 04:17:00,45.2,41.6,30.02,SSE,158,0.0,0.0,87,0.00,,,0.00,0.00,VWS V14.01,2013-02-11 09:17:00,
2013-02-11 04:22:00,45.2,41.6,30.02,SSE,158,0.0,0.0,87,0.00,,,0.00,0.00,VWS V14.01,2013-02-11 09:22:00,
2013-02-11 04:27:00,45.4,41.8,30.02,SSE,158,0.0,0.0,87,0.00,,,0.00,0.00,VWS V14.01,2013-02-11 09:27:00,
2013-02-11 04:32:00,45.4,41.8,30.01,SSE,158,0.0,0.0,87,0.00,,,0.00,0.00,VWS V14.01,2013-02-11 09:32:00,
2013-02-11 04:37:00,45.4,41.8,30.01,SSE,158,0.0,0.0,87,0.00,,,0.00,0.00,VWS V14.01,2013-02-11 09:37:00,
2013-02-11 04:42:00,45.4,42.1,30.01,SSE,158,0.0,0.0,88,0.00,,,0.00,0.00,VWS V14.01,2013-02-11 09:42:00,
2013-02-11 04:47:00,45.5,42.2,30.01,SSE,158,0.0,0.0,88,0.00,,,0.00,0.00,VWS V14.01,2013-02-11 09:47:00,
2013-02-11 04:52:00,45.5,42.2,30.01,SSE,158,0.0,0.0,88,0.00,,,0.00,0.00,VWS V14.01,2013-02-11 09:52:00,
2013-02-11 04:57:00,45.5,42.2,30.01,SSE,158,0.0,0.0,88,0.00,,,0.00,0.00,VWS V14.01,2013-02-11 09:57:00,
2013-02-11 05:02:00,45.7,42.4,30.01,SSE,158,0.0,0.0,88,0.00,,,0.00,0.00,VWS V14.01,2013-02-11 10:02:00,
2013-02-11 05:07:00,45.7,42.4,30.01,SSE,158,0.0,0.0,88,0.00,,,0.00,0.00,VWS V14.01,2013-02-11 10:07:00,
2013-02-11 05:12:00,45.7,42.4,30.01,SSE,158,0.0,0.0,88,0.00,,,0.00,0.00,VWS V14.01,2013-02-11 10:12:00,
2013-02-11 05:17:00,45.8,42.5,30.01,SSE,158,0.0,0.0,88,0.00,,,0.00,0.00,VWS V14.01,2013-02-11 10:17:00,
2013-02-11 05:22:00,45.8,42.5,30.01,SSE,158,0.0,0.0,88,0.00,,,0.00,0.00,VWS V14.01,2013-02-11 10:22:00,
2013-02-11 05:27:00,45.8,42.5,30.01,SSE,158,0.0,0.0,88,0.00,,,0.00,0.00,VWS V14.01,2013-02-11 10:27:00,
2013-02-11 05:32:00,46.0,43.0,30.01,SSE,158,0.0,0.0,89,0.00,,,0.00,0.00,VWS V14.01,2013-02-11 10:32:00,
2013-02-11 05:37:00,46.0,43.0,30.01,SSE,158,0.0,0.0,89,0.00,,,0.00,0.00,VWS V14.01,2013-02-11 10:37:00,
2013-02-11 05:42:00,46.0,43.0,30.01,SSE,158,0.0,0.0,89,0.00,,,0.00,0.00,VWS V14.01,2013-02-11 10:42:00,
2013-02-11 05:47:00,46.1,43.0,30.01,SSE,158,0.0,0.0,89,0.00,,,0.00,0.00,VWS V14.01,2013-02-11 10:47:00,
2013-02-11 05:52:00,46.1,43.0,30.01,SSE,158,0.0,0.0,89,0.00,,,0.00,0.00,VWS V14.01,2013-02-11 10:52:00,
2013-02-11 05:57:00,46.1,43.0,30.01,SSE,158,0.0,0.0,89,0.00,,,0.00,0.00,VWS V14.01,2013-02-11 10:57:00,
2013-02-11 06:02:00,46.1,43.0,30.01,SSE,158,0.0,0.0,89,0.00,,,0.00,0.00,VWS V14.01,2013-02-11 11:02:00,
2013-02-11 06:07:00,46.2,43.1,30.01,SSE,158,0.0,0.0,89,0.00,,,0.00,0.00,VWS V14.01,2013-02-11 11:07:00,
2013-02-11 06:11:00,46.2,43.1,30.01,SSE,158,0.0,0.0,89,0.00,,,0.00,0.00,VWS V14.01,2013-02-11 11:11:00,
2013-02-11 06:16:00,46.2,43.1,30.01,SSE,158,0.0,0.0,89,0.00,,,0.00,0.00,VWS V14.01,2013-02-11 11:16:00,
2013-02-11 06:22:00,46.2,43.1,30.01,SSE,158,0.0,0.0,89,0.00,,,0.00,0.00,VWS V14.01,2013-02-11 11:22:00,
2013-02-11 06:27:00,46.4,43.3,30.01,SSE,158,0.0,0.0,89,0.00,,,0.00,0.00,VWS V14.01,2013-02-11 11:27:00,
2013-02-11 06:32:00,46.4,43.3,30.00,SSE,158,0.0,0.0,89,0.00,,,0.00,0.00,VWS V14.01,2013-02-11 11:32:00,
2013-02-11 06:37:00,46.5,43.4,30.00,SSE,158,0.0,0.0,89,0.00,,,0.00,0.00,VWS V14.01,2013-02-11 11:37:00,
2013-02-11 06:42:00,46.5,43.7,30.00,SSE,158,0.0,0.0,90,0.00,,,0.00,0.00,VWS V14.01,2013-02-11 11:42:00,
2013-02-11 06:47:00,46.5,43.7,30.01,SSE,158,0.0,0.0,90,0.00,,,0.00,0.00,VWS V14.01,2013-02-11 11:47:00,
2013-02-11 06:52:00,46.7,43.9,30.01,SSE,158,0.0,0.0,90,0.00,,,0.00,0.00,VWS V14.01,2013-02-11 11:52:00,
2013-02-11 06:56:00,46.7,43.9,30.01,SSE,158,0.0,0.0,90,0.00,,,0.00,0.00,VWS V14.01,2013-02-11 11:56:00,
2013-02-11 07:01:00,46.7,43.9,30.00,SSE,158,0.0,0.0,90,0.00,,,0.00,0.00,VWS V14.01,2013-02-11 12:01:00,
2013-02-11 07:06:00,46.8,44.0,30.00,SSE,158,0.0,0.0,90,0.00,,,0.00,0.00,VWS V14.01,2013-02-11 12:06:00,
2013-02-11 07:11:00,46.8,44.3,30.00,SSE,158,0.0,0.0,91,0.01,,,0.01,0.00,VWS V14.01,2013-02-11 12:11:00,
2013-02-11 07:16:00,47.0,44.5,30.00,SSE,158,0.0,0.0,91,0.01,,,0.01,0.00,VWS V14.01,2013-02-11 12:16:00,
2013-02-11 07:21:00,47.1,44.6,30.00,SSE,158,0.0,0.0,91,0.01,,,0.01,0.00,VWS V14.01,2013-02-11 12:21:00,
2013-02-11 07:27:00,47.3,44.8,30.00,SSE,158,0.0,0.0,91,0.01,,,0.01,0.00,VWS V14.01,2013-02-11 12:27:00,
2013-02-11 07:32:00,47.3,45.1,30.00,SSE,158,0.0,0.0,92,0.01,,,0.01,5.00,VWS V14.01,2013-02-11 12:32:00,
2013-02-11 07:36:00,47.3,45.1,30.00,SSE,158,0.0,0.0,92,0.01,,,0.01,7.00,VWS V14.01,2013-02-11 12:36:00,
2013-02-11 07:42:00,47.3,45.1,30.00,SSE,158,0.0,0.0,92,0.02,,,0.02,7.00,VWS V14.01,2013-02-11 12:42:00,
2013-02-11 07:47:00,47.3,45.1,30.00,SSE,158,0.0,0.0,92,0.02,,,0.02,7.00,VWS V14.01,2013-02-11 12:47:00,
2013-02-11 07:51:00,47.3,45.1,30.00,SSE,158,0.0,0.0,92,0.02,,,0.02,5.00,VWS V14.01,2013-02-11 12:51:00,
2013-02-11 07:56:00,47.3,45.1,30.00,SSE,158,0.0,0.0,92,0.02,,,0.02,5.00,VWS V14.01,2013-02-11 12:56:00,
2013-02-11 08:01:00,47.4,45.2,30.00,SSE,158,0.0,0.0,92,0.02,,,0.02,11.00,VWS V14.01,2013-02-11 13:01:00,
2013-02-11 08:06:00,47.4,45.2,30.00,SSE,158,0.0,0.0,92,0.02,,,0.02,12.00,VWS V14.01,2013-02-11 13:06:00,
2013-02-11 08:11:00,47.6,45.4,30.00,SSE,158,0.0,0.0,92,0.02,,,0.03,12.00,VWS V14.01,2013-02-11 13:11:00,
2013-02-11 08:16:00,47.9,46.0,29.99,SSE,158,0.0,0.0,93,0.02,,,0.03,14.00,VWS V14.01,2013-02-11 13:16:00,
2013-02-11 08:21:00,48.0,46.1,29.99,SSE,158,1.0,1.0,93,0.02,,,0.03,19.00,VWS V14.01,2013-02-11 13:21:00,
2013-02-11 08:26:00,48.3,46.4,29.99,SSE,158,0.0,2.0,93,0.02,,,0.03,25.00,VWS V14.01,2013-02-11 13:26:00,
2013-02-11 08:31:00,48.6,47.0,29.97,SSE,158,0.0,0.0,94,0.02,,,0.03,26.00,VWS V14.01,2013-02-11 13:31:00,
2013-02-11 08:36:00,49.2,47.5,29.97,SSE,158,0.0,2.0,94,0.02,,,0.03,28.00,VWS V14.01,2013-02-11 13:36:00,
2013-02-11 08:42:00,49.8,48.2,29.97,South,181,2.0,4.0,94,0.01,,,0.03,26.00,VWS V14.01,2013-02-11 13:42:00,
2013-02-11 08:47:00,50.7,49.3,29.96,SSE,153,0.0,0.0,95,0.01,,,0.03,35.00,VWS V14.01,2013-02-11 13:47:00,
2013-02-11 08:52:00,51.7,50.3,29.96,SSE,165,0.0,0.0,95,0.01,,,0.03,33.00,VWS V14.01,2013-02-11 13:52:00,
2013-02-11 08:56:00,53.2,51.8,29.96,SSW,210,4.0,6.0,95,0.01,,,0.03,44.00,VWS V14.01,2013-02-11 13:56:00,
2013-02-11 09:01:00,54.2,53.1,29.95,South,174,2.0,2.0,96,0.01,,,0.03,53.00,VWS V14.01,2013-02-11 14:01:00,
2013-02-11 09:06:00,55.1,54.0,29.95,SW,231,0.0,0.0,96,0.01,,,0.03,44.00,VWS V14.01,2013-02-11 14:06:00,
2013-02-11 09:12:00,55.7,54.6,29.95,South,186,3.0,4.0,96,0.00,,,0.03,44.00,VWS V14.01,2013-02-11 14:12:00,
2013-02-11 09:17:00,56.3,55.2,29.95,SSW,198,3.0,3.0,96,0.00,,,0.03,51.00,VWS V14.01,2013-02-11 14:17:00,
2013-02-11 09:22:00,56.9,55.8,29.95,SW,220,6.0,6.0,96,0.00,,,0.03,33.00,VWS V14.01,2013-02-11 14:22:00,
2013-02-11 09:27:00,57.2,56.1,29.95,SW,220,2.0,6.0,96,0.00,,,0.03,26.00,VWS V14.01,2013-02-11 14:27:00,
2013-02-11 09:32:00,57.3,55.9,29.95,SW,229,4.0,8.0,95,0.00,,,0.03,28.00,VWS V14.01,2013-02-11 14:32:00,
2013-02-11 09:37:00,57.6,56.2,29.95,SSW,207,5.0,7.0,95,0.00,,,0.03,28.00,VWS V14.01,2013-02-11 14:37:00,
2013-02-11 09:42:00,57.8,56.4,29.95,South,173,3.0,4.0,95,0.00,,,0.03,37.00,VWS V14.01,2013-02-11 14:42:00,
2013-02-11 09:47:00,58.0,56.6,29.95,SW,236,4.0,9.0,95,0.00,,,0.03,37.00,VWS V14.01,2013-02-11 14:47:00,
2013-02-11 09:52:00,58.1,56.7,29.95,SSW,211,10.0,11.0,95,0.00,,,0.03,40.00,VWS V14.01,2013-02-11 14:52:00,
2013-02-11 09:57:00,58.3,56.9,29.95,SW,221,5.0,8.0,95,0.00,,,0.03,47.00,VWS V14.01,2013-02-11 14:57:00,
2013-02-11 10:02:00,58.4,57.0,29.95,WSW,243,5.0,6.0,95,0.00,,,0.03,46.00,VWS V14.01,2013-02-11 15:02:00,
2013-02-11 10:07:00,58.6,57.2,29.95,SSW,212,6.0,7.0,95,0.00,,,0.03,53.00,VWS V14.01,2013-02-11 15:07:00,
2013-02-11 10:12:00,58.7,57.3,29.95,West,261,6.0,6.0,95,0.00,,,0.03,39.00,VWS V14.01,2013-02-11 15:12:00,
2013-02-11 10:17:00,58.9,57.2,29.96,SW,233,0.0,4.0,94,0.00,,,0.03,39.00,VWS V14.01,2013-02-11 15:17:00,
2013-02-11 10:22:00,58.9,57.2,29.96,SSW,204,5.0,6.0,94,0.00,,,0.03,33.00,VWS V14.01,2013-02-11 15:22:00,
2013-02-11 10:27:00,59.0,57.3,29.96,SW,230,6.0,6.0,94,0.00,,,0.03,32.00,VWS V14.01,2013-02-11 15:27:00,
2013-02-11 10:32:00,59.2,57.5,29.96,SSW,202,3.0,4.0,94,0.00,,,0.03,30.00,VWS V14.01,2013-02-11 15:32:00,
2013-02-11 10:36:00,59.2,57.2,29.96,SW,236,7.0,7.0,93,0.00,,,0.03,32.00,VWS V14.01,2013-02-11 15:36:00,
2013-02-11 10:42:00,59.3,57.3,29.96,SW,214,0.0,4.0,93,0.00,,,0.03,40.00,VWS V14.01,2013-02-11 15:42:00,
2013-02-11 10:47:00,59.3,57.3,29.95,SW,223,5.0,7.0,93,0.00,,,0.03,54.00,VWS V14.01,2013-02-11 15:47:00,
2013-02-11 10:52:00,59.5,57.5,29.95,SW,224,4.0,4.0,93,0.00,,,0.03,58.00,VWS V14.01,2013-02-11 15:52:00,
2013-02-11 10:57:00,59.5,57.5,29.95,SSW,202,0.0,4.0,93,0.01,,,0.04,47.00,VWS V14.01,2013-02-11 15:57:00,
2013-02-11 11:02:00,59.5,57.5,29.94,South,191,1.0,2.0,93,0.01,,,0.04,32.00,VWS V14.01,2013-02-11 16:02:00,
2013-02-11 11:07:00,59.5,57.5,29.94,SW,221,5.0,7.0,93,0.01,,,0.04,30.00,VWS V14.01,2013-02-11 16:07:00,
2013-02-11 11:12:00,59.5,57.5,29.94,SSW,212,0.0,0.0,93,0.01,,,0.04,30.00,VWS V14.01,2013-02-11 16:12:00,
2013-02-11 11:17:00,59.5,57.5,29.93,SW,224,0.0,1.0,93,0.01,,,0.04,33.00,VWS V14.01,2013-02-11 16:17:00,
2013-02-11 11:22:00,59.5,57.5,29.93,SSW,209,1.0,1.0,93,0.01,,,0.04,40.00,VWS V14.01,2013-02-11 16:22:00,
2013-02-11 11:27:00,59.5,57.5,29.93,SSW,212,4.0,5.0,93,0.01,,,0.04,42.00,VWS V14.01,2013-02-11 16:27:00,
2013-02-11 11:32:00,59.6,57.6,29.92,SW,224,3.0,5.0,93,0.01,,,0.04,46.00,VWS V14.01,2013-02-11 16:32:00,
2013-02-11 11:37:00,59.6,57.6,29.92,WSW,239,0.0,0.0,93,0.01,,,0.04,46.00,VWS V14.01,2013-02-11 16:37:00,
2013-02-11 11:42:00,59.8,57.8,29.92,SW,231,0.0,2.0,93,0.01,,,0.04,51.00,VWS V14.01,2013-02-11 16:42:00,
2013-02-11 11:46:00,59.8,57.8,29.92,SW,233,5.0,5.0,93,0.01,,,0.04,60.00,VWS V14.01,2013-02-11 16:46:00,
2013-02-11 11:52:00,59.9,57.9,29.92,SW,215,0.0,0.0,93,0.01,,,0.04,60.00,VWS V14.01,2013-02-11 16:52:00,
2013-02-11 11:57:00,60.1,58.1,29.92,SSW,207,0.0,0.0,93,0.00,,,0.04,49.00,VWS V14.01,2013-02-11 16:57:00,
2013-02-11 12:02:00,60.1,58.1,29.90,SSW,209,0.0,1.0,93,0.00,,,0.04,63.00,VWS V14.01,2013-02-11 17:02:00,
2013-02-11 12:07:00,60.2,58.2,29.90,SSW,206,3.0,3.0,93,0.00,,,0.04,56.00,VWS V14.01,2013-02-11 17:07:00,
2013-02-11 12:12:00,60.4,58.4,29.90,SW,222,4.0,5.0,93,0.00,,,0.04,42.00,VWS V14.01,2013-02-11 17:12:00,
2013-02-11 12:17:00,60.4,58.4,29.90,West,266,4.0,7.0,93,0.00,,,0.04,49.00,VWS V14.01,2013-02-11 17:17:00,
2013-02-11 12:22:00,60.5,58.2,29.90,WSW,258,3.0,6.0,92,0.00,,,0.04,37.00,VWS V14.01,2013-02-11 17:22:00,
2013-02-11 12:27:00,60.5,58.2,29.90,SSW,213,0.0,6.0,92,0.00,,,0.04,49.00,VWS V14.01,2013-02-11 17:27:00,
2013-02-11 12:32:00,60.7,58.4,29.90,NW,312,7.0,7.0,92,0.00,,,0.04,49.00,VWS V14.01,2013-02-11 17:32:00,
2013-02-11 12:37:00,60.9,58.6,29.90,WSW,240,4.0,9.0,92,0.00,,,0.04,46.00,VWS V14.01,2013-02-11 17:37:00,
2013-02-11 12:42:00,60.9,58.6,29.90,West,260,5.0,5.0,92,0.00,,,0.04,37.00,VWS V14.01,2013-02-11 17:42:00,
2013-02-11 12:47:00,60.9,58.6,29.89,SSW,204,0.0,1.0,92,0.00,,,0.04,62.00,VWS V14.01,2013-02-11 17:47:00,
2013-02-11 12:52:00,61.0,58.7,29.89,SW,226,0.0,3.0,92,0.00,,,0.04,63.00,VWS V14.01,2013-02-11 17:52:00,
2013-02-11 12:57:00,61.2,58.6,29.89,SW,230,0.0,1.0,91,0.00,,,0.04,49.00,VWS V14.01,2013-02-11 17:57:00,
2013-02-11 13:02:00,61.2,58.6,29.89,SSW,198,9.0,9.0,91,0.00,,,0.04,60.00,VWS V14.01,2013-02-11 18:02:00,
2013-02-11 13:07:00,61.3,58.7,29.89,WSW,245,2.0,3.0,91,0.00,,,0.04,56.00,VWS V14.01,2013-02-11 18:07:00,
2013-02-11 13:12:00,61.3,58.7,29.89,WSW,250,4.0,7.0,91,0.00,,,0.04,62.00,VWS V14.01,2013-02-11 18:12:00,
2013-02-11 13:17:00,61.5,58.5,29.88,SW,232,0.0,1.0,90,0.00,,,0.04,70.00,VWS V14.01,2013-02-11 18:17:00,
2013-02-11 13:22:00,61.6,58.6,29.88,West,266,3.0,6.0,90,0.00,,,0.04,56.00,VWS V14.01,2013-02-11 18:22:00,
2013-02-11 13:27:00,61.6,58.6,29.88,WSW,246,1.0,4.0,90,0.00,,,0.04,51.00,VWS V14.01,2013-02-11 18:27:00,
2013-02-11 13:32:00,61.8,58.5,29.87,West,263,1.0,3.0,89,0.00,,,0.04,51.00,VWS V14.01,2013-02-11 18:32:00,
2013-02-11 13:37:00,61.8,58.5,29.87,WSW,251,3.0,3.0,89,0.00,,,0.04,44.00,VWS V14.01,2013-02-11 18:37:00,
2013-02-11 13:42:00,61.8,58.5,29.87,West,279,3.0,5.0,89,0.00,,,0.04,32.00,VWS V14.01,2013-02-11 18:42:00,
2013-02-11 13:47:00,61.8,58.5,29.87,SW,231,4.0,6.0,89,0.00,,,0.04,26.00,VWS V14.01,2013-02-11 18:47:00,
2013-02-11 13:52:00,61.8,58.5,29.87,West,276,0.0,1.0,89,0.00,,,0.04,44.00,VWS V14.01,2013-02-11 18:52:00,
2013-02-11 13:57:00,62.0,58.7,29.87,SSW,205,2.0,3.0,89,0.00,,,0.04,46.00,VWS V14.01,2013-02-11 18:57:00,
2013-02-11 14:02:00,62.0,58.7,29.86,West,269,1.0,6.0,89,0.00,,,0.04,62.00,VWS V14.01,2013-02-11 19:02:00,
2013-02-11 14:07:00,62.0,58.7,29.86,SSW,202,0.0,5.0,89,0.00,,,0.04,62.00,VWS V14.01,2013-02-11 19:07:00,
2013-02-11 14:12:00,62.0,59.0,29.86,SW,236,2.0,6.0,90,0.00,,,0.04,54.00,VWS V14.01,2013-02-11 19:12:00,
2013-02-11 14:17:00,62.0,59.0,29.85,South,183,4.0,6.0,90,0.00,,,0.04,51.00,VWS V14.01,2013-02-11 19:17:00,
2013-02-11 14:22:00,62.0,59.0,29.85,WSW,239,1.0,3.0,90,0.00,,,0.04,53.00,VWS V14.01,2013-02-11 19:22:00,
2013-02-11 14:27:00,62.1,59.1,29.85,WSW,245,4.0,4.0,90,0.00,,,0.04,53.00,VWS V14.01,2013-02-11 19:27:00,
2013-02-11 14:32:00,62.1,59.1,29.84,SSW,210,7.0,11.0,90,0.00,,,0.04,58.00,VWS V14.01,2013-02-11 19:32:00,
2013-02-11 14:37:00,62.1,59.1,29.84,SSW,204,4.0,8.0,90,0.00,,,0.04,49.00,VWS V14.01,2013-02-11 19:37:00,
2013-02-11 14:42:00,62.1,59.1,29.84,SW,214,5.0,11.0,90,0.00,,,0.04,51.00,VWS V14.01,2013-02-11 19:42:00,
2013-02-11 14:47:00,62.1,59.1,29.85,SW,224,0.0,3.0,90,0.00,,,0.04,72.00,VWS V14.01,2013-02-11 19:47:00,
2013-02-11 14:52:00,62.3,59.0,29.85,SW,217,4.0,6.0,89,0.00,,,0.04,63.00,VWS V14.01,2013-02-11 19:52:00,
2013-02-11 14:57:00,62.3,59.0,29.85,SSW,193,8.0,15.0,89,0.00,,,0.04,63.00,VWS V14.01,2013-02-11 19:57:00,
2013-02-11 15:02:00,62.4,59.1,29.84,SSW,203,0.0,4.0,89,0.00,,,0.04,53.00,VWS V14.01,2013-02-11 20:02:00,
2013-02-11 15:07:00,62.4,58.8,29.84,WSW,243,9.0,9.0,88,0.00,,,0.04,37.00,VWS V14.01,2013-02-11 20:07:00,
2013-02-11 15:12:00,62.4,58.8,29.84,WSW,243,4.0,5.0,88,0.00,,,0.04,37.00,VWS V14.01,2013-02-11 20:12:00,
2013-02-11 15:17:00,62.4,58.8,29.85,WSW,241,6.0,10.0,88,0.00,,,0.04,53.00,VWS V14.01,2013-02-11 20:17:00,
2013-02-11 15:22:00,62.6,58.7,29.85,WSW,241,1.0,3.0,87,0.00,,,0.04,58.00,VWS V14.01,2013-02-11 20:22:00,
2013-02-11 15:27:00,62.7,58.8,29.85,WSW,240,2.0,3.0,87,0.00,,,0.04,44.00,VWS V14.01,2013-02-11 20:27:00,
2013-02-11 15:32:00,62.7,58.5,29.85,WSW,237,6.0,10.0,86,0.00,,,0.04,56.00,VWS V14.01,2013-02-11 20:32:00,
2013-02-11 15:37:00,62.9,58.3,29.85,West,263,6.0,6.0,85,0.00,,,0.04,58.00,VWS V14.01,2013-02-11 20:37:00,
2013-02-11 15:42:00,63.1,58.5,29.85,West,259,6.0,6.0,85,0.00,,,0.04,90.00,VWS V14.01,2013-02-11 20:42:00,
2013-02-11 15:47:00,63.1,58.2,29.84,WSW,258,2.0,8.0,84,0.00,,,0.04,70.00,VWS V14.01,2013-02-11 20:47:00,
2013-02-11 15:52:00,63.2,58.3,29.84,SSW,202,9.0,14.0,84,0.00,,,0.04,67.00,VWS V14.01,2013-02-11 20:52:00,
2013-02-11 15:57:00,63.4,58.5,29.84,SSE,155,3.0,3.0,84,0.00,,,0.04,97.00,VWS V14.01,2013-02-11 20:57:00,
2013-02-11 16:02:00,63.5,58.2,29.82,WSW,251,10.0,14.0,83,0.00,,,0.04,60.00,VWS V14.01,2013-02-11 21:02:00,
2013-02-11 16:07:00,63.5,58.2,29.82,SW,219,2.0,10.0,83,0.00,,,0.04,53.00,VWS V14.01,2013-02-11 21:07:00,
2013-02-11 16:12:00,63.7,58.5,29.82,South,187,1.0,1.0,83,0.00,,,0.04,42.00,VWS V14.01,2013-02-11 21:12:00,
2013-02-11 16:17:00,63.7,58.5,29.82,WNW,283,5.0,10.0,83,0.00,,,0.04,32.00,VWS V14.01,2013-02-11 21:17:00,
2013-02-11 16:22:00,63.7,58.5,29.82,WNW,282,9.0,9.0,83,0.00,,,0.04,35.00,VWS V14.01,2013-02-11 21:22:00,
2013-02-11 16:27:00,63.7,58.1,29.82,SSW,207,0.0,3.0,82,0.00,,,0.04,39.00,VWS V14.01,2013-02-11 21:27:00,
2013-02-11 16:32:00,63.7,58.1,29.81,WSW,239,5.0,5.0,82,0.00,,,0.04,28.00,VWS V14.01,2013-02-11 21:32:00,
2013-02-11 16:37:00,63.7,58.1,29.81,SSW,203,3.0,11.0,82,0.00,,,0.04,30.00,VWS V14.01,2013-02-11 21:37:00,
2013-02-11 16:42:00,63.7,58.1,29.81,WNW,285,2.0,5.0,82,0.00,,,0.04,39.00,VWS V14.01,2013-02-11 21:42:00,
2013-02-11 16:47:00,63.7,57.8,29.81,WSW,258,6.0,13.0,81,0.00,,,0.04,33.00,VWS V14.01,2013-02-11 21:47:00,
2013-02-11 16:52:00,63.7,57.8,29.81,West,267,5.0,6.0,81,0.00,,,0.04,33.00,VWS V14.01,2013-02-11 21:52:00,
2013-02-11 16:57:00,63.7,57.8,29.81,WNW,301,13.0,13.0,81,0.00,,,0.04,33.00,VWS V14.01,2013-02-11 21:57:00,
2013-02-11 17:02:00,63.7,57.8,29.82,WNW,286,4.0,9.0,81,0.00,,,0.04,30.00,VWS V14.01,2013-02-11 22:02:00,
2013-02-11 17:07:00,63.7,57.8,29.82,WSW,257,5.0,6.0,81,0.00,,,0.04,26.00,VWS V14.01,2013-02-11 22:07:00,
2013-02-11 17:12:00,63.7,57.8,29.82,West,259,7.0,8.0,81,0.00,,,0.04,23.00,VWS V14.01,2013-02-11 22:12:00,
2013-02-11 17:17:00,63.7,57.4,29.82,WSW,245,5.0,5.0,80,0.00,,,0.04,16.00,VWS V14.01,2013-02-11 22:17:00,
2013-02-11 17:22:00,63.5,57.6,29.82,West,271,4.0,10.0,81,0.00,,,0.04,14.00,VWS V14.01,2013-02-11 22:22:00,
2013-02-11 17:27:00,63.5,57.2,29.82,WSW,253,3.0,9.0,80,0.00,,,0.04,9.00,VWS V14.01,2013-02-11 22:27:00,
2013-02-11 17:32:00,63.5,57.2,29.82,WSW,244,4.0,4.0,80,0.00,,,0.04,5.00,VWS V14.01,2013-02-11 22:32:00,
2013-02-11 17:37:00,63.5,57.2,29.82,West,281,2.0,4.0,80,0.00,,,0.04,0.00,VWS V14.01,2013-02-11 22:37:00,
2013-02-11 17:42:00,63.7,57.4,29.82,West,260,8.0,10.0,80,0.00,,,0.04,0.00,VWS V14.01,2013-02-11 22:42:00,
2013-02-11 17:47:00,63.7,57.4,29.83,SW,229,6.0,10.0,80,0.00,,,0.04,0.00,VWS V14.01,2013-02-11 22:47:00,
2013-02-11 17:52:00,63.7,57.4,29.83,WSW,239,7.0,12.0,80,0.00,,,0.04,0.00,VWS V14.01,2013-02-11 22:52:00,
2013-02-11 17:57:00,63.7,57.1,29.83,West,276,4.0,5.0,79,0.00,,,0.04,0.00,VWS V14.01,2013-02-11 22:57:00,
2013-02-11 18:02:00,63.5,56.9,29.82,WSW,255,7.0,9.0,79,0.00,,,0.04,0.00,VWS V14.01,2013-02-11 23:02:00,
2013-02-11 18:07:00,63.5,56.9,29.82,WSW,242,1.0,1.0,79,0.00,,,0.04,0.00,VWS V14.01,2013-02-11 23:07:00,
2013-02-11 18:12:00,63.5,56.9,29.82,WSW,258,4.0,5.0,79,0.00,,,0.04,0.00,VWS V14.01,2013-02-11 23:12:00,
2013-02-11 18:17:00,63.5,56.9,29.84,West,266,7.0,7.0,79,0.00,,,0.04,0.00,VWS V14.01,2013-02-11 23:17:00,
2013-02-11 18:22:00,63.5,56.9,29.84,WSW,256,3.0,8.0,79,0.00,,,0.04,0.00,VWS V14.01,2013-02-11 23:22:00,
2013-02-11 18:27:00,63.5,56.9,29.84,WSW,250,9.0,10.0,79,0.00,,,0.04,0.00,VWS V14.01,2013-02-11 23:27:00,
2013-02-11 18:32:00,63.5,56.9,29.84,SW,230,3.0,7.0,79,0.00,,,0.04,0.00,VWS V14.01,2013-02-11 23:32:00,
2013-02-11 18:37:00,63.5,56.9,29.84,WNW,287,5.0,10.0,79,0.00,,,0.04,0.00,VWS V14.01,2013-02-11 23:37:00,
2013-02-11 18:42:00,63.5,56.9,29.84,WSW,240,3.0,6.0,79,0.00,,,0.04,0.00,VWS V14.01,2013-02-11 23:42:00,
2013-02-11 18:47:00,63.5,56.9,29.83,SSW,205,3.0,7.0,79,0.00,,,0.04,0.00,VWS V14.01,2013-02-11 23:47:00,
2013-02-11 18:52:00,63.5,56.9,29.83,West,259,10.0,10.0,79,0.00,,,0.04,0.00,VWS V14.01,2013-02-11 23:52:00,
2013-02-11 18:57:00,63.5,56.5,29.83,West,261,4.0,8.0,78,0.00,,,0.04,0.00,VWS V14.01,2013-02-11 23:57:00,
2013-02-11 19:02:00,63.4,56.8,29.84,West,261,10.0,10.0,79,0.00,,,0.04,0.00,VWS V14.01,2013-02-12 00:02:00,
2013-02-11 19:07:00,63.4,56.4,29.84,West,268,5.0,10.0,78,0.00,,,0.04,0.00,VWS V14.01,2013-02-12 00:07:00,
2013-02-11 19:12:00,63.4,56.4,29.84,WSW,257,3.0,7.0,78,0.00,,,0.04,0.00,VWS V14.01,2013-02-12 00:12:00,
2013-02-11 19:17:00,63.2,56.2,29.84,West,262,3.0,10.0,78,0.00,,,0.04,0.00,VWS V14.01,2013-02-12 00:17:00,
2013-02-11 19:22:00,63.2,56.2,29.84,WSW,252,7.0,7.0,78,0.00,,,0.04,0.00,VWS V14.01,2013-02-12 00:22:00,
2013-02-11 19:27:00,63.2,56.2,29.84,WSW,252,7.0,10.0,78,0.00,,,0.04,0.00,VWS V14.01,2013-02-12 00:27:00,
2013-02-11 19:32:00,63.2,56.2,29.84,WSW,248,3.0,3.0,78,0.00,,,0.04,0.00,VWS V14.01,2013-02-12 00:32:00,
2013-02-11 19:37:00,63.1,56.5,29.84,West,263,2.0,6.0,79,0.00,,,0.04,0.00,VWS V14.01,2013-02-12 00:37:00,
2013-02-11 19:42:00,62.9,56.3,29.84,West,279,14.0,14.0,79,0.00,,,0.04,0.00,VWS V14.01,2013-02-12 00:42:00,
2013-02-11 19:47:00,63.1,56.1,29.85,West,267,5.0,5.0,78,0.00,,,0.04,0.00,VWS V14.01,2013-02-12 00:47:00,
2013-02-11 19:52:00,63.1,56.1,29.85,West,266,8.0,10.0,78,0.00,,,0.04,0.00,VWS V14.01,2013-02-12 00:52:00,
2013-02-11 19:57:00,63.1,56.1,29.85,West,259,7.0,11.0,78,0.00,,,0.04,0.00,VWS V14.01,2013-02-12 00:57:00,
2013-02-11 20:02:00,63.1,55.8,29.85,WNW,289,7.0,10.0,77,0.00,,,0.04,0.00,VWS V14.01,2013-02-12 01:02:00,
2013-02-11 20:07:00,63.1,55.8,29.85,West,279,5.0,6.0,77,0.00,,,0.04,0.00,VWS V14.01,2013-02-12 01:07:00,
2013-02-11 20:12:00,63.1,56.1,29.85,West,261,3.0,5.0,78,0.00,,,0.04,0.00,VWS V14.01,2013-02-12 01:12:00,
2013-02-11 20:17:00,62.9,55.9,29.84,West,281,4.0,11.0,78,0.00,,,0.04,0.00,VWS V14.01,2013-02-12 01:17:00,
2013-02-11 20:22:00,62.7,55.8,29.84,West,281,5.0,9.0,78,0.00,,,0.04,0.00,VWS V14.01,2013-02-12 01:22:00,
2013-02-11 20:27:00,62.6,55.7,29.84,WSW,258,7.0,11.0,78,0.00,,,0.04,0.00,VWS V14.01,2013-02-12 01:27:00,
2013-02-11 20:32:00,62.6,56.0,29.84,WSW,252,5.0,11.0,79,0.00,,,0.04,0.00,VWS V14.01,2013-02-12 01:32:00,
2013-02-11 20:37:00,62.4,55.8,29.84,WSW,258,1.0,6.0,79,0.00,,,0.04,0.00,VWS V14.01,2013-02-12 01:37:00,
2013-02-11 20:42:00,62.3,55.7,29.84,WSW,237,3.0,5.0,79,0.00,,,0.04,0.00,VWS V14.01,2013-02-12 01:42:00,
2013-02-11 20:47:00,62.1,55.9,29.84,WSW,255,2.0,5.0,80,0.00,,,0.04,0.00,VWS V14.01,2013-02-12 01:47:00,
2013-02-11 20:52:00,62.0,55.8,29.84,West,279,3.0,3.0,80,0.00,,,0.04,0.00,VWS V14.01,2013-02-12 01:52:00,
2013-02-11 20:57:00,62.0,55.8,29.84,WSW,251,5.0,6.0,80,0.00,,,0.04,0.00,VWS V14.01,2013-02-12 01:57:00,
2013-02-11 21:02:00,62.0,55.8,29.84,West,262,0.0,6.0,80,0.00,,,0.04,0.00,VWS V14.01,2013-02-12 02:02:00,
2013-02-11 21:07:00,61.8,55.6,29.84,West,267,10.0,14.0,80,0.00,,,0.04,0.00,VWS V14.01,2013-02-12 02:07:00,
2013-02-11 21:12:00,61.8,55.6,29.84,West,262,5.0,5.0,80,0.00,,,0.04,0.00,VWS V14.01,2013-02-12 02:12:00,
2013-02-11 21:17:00,61.6,55.4,29.84,WSW,255,3.0,4.0,80,0.00,,,0.04,0.00,VWS V14.01,2013-02-12 02:17:00,
2013-02-11 21:22:00,61.6,55.4,29.84,WSW,256,3.0,5.0,80,0.00,,,0.04,0.00,VWS V14.01,2013-02-12 02:22:00,
2013-02-11 21:27:00,61.5,55.3,29.84,SW,233,12.0,12.0,80,0.00,,,0.04,0.00,VWS V14.01,2013-02-12 02:27:00,
2013-02-11 21:32:00,61.5,55.3,29.84,West,270,4.0,4.0,80,0.00,,,0.04,0.00,VWS V14.01,2013-02-12 02:32:00,
2013-02-11 21:37:00,61.3,55.1,29.84,West,267,0.0,3.0,80,0.00,,,0.04,0.00,VWS V14.01,2013-02-12 02:37:00,
2013-02-11 21:42:00,61.3,55.4,29.84,West,262,3.0,7.0,81,0.00,,,0.04,0.00,VWS V14.01,2013-02-12 02:42:00,
2013-02-11 21:47:00,61.2,55.3,29.84,WSW,258,4.0,5.0,81,0.00,,,0.04,0.00,VWS V14.01,2013-02-12 02:47:00,
2013-02-11 21:52:00,61.0,55.1,29.84,WSW,248,5.0,8.0,81,0.00,,,0.04,0.00,VWS V14.01,2013-02-12 02:52:00,
2013-02-11 21:57:00,61.0,55.5,29.84,SW,225,6.0,11.0,82,0.00,,,0.04,0.00,VWS V14.01,2013-02-12 02:57:00,
2013-02-11 22:02:00,60.9,55.4,29.84,West,266,10.0,10.0,82,0.00,,,0.04,0.00,VWS V14.01,2013-02-12 03:02:00,
2013-02-11 22:07:00,60.9,55.4,29.84,West,272,8.0,9.0,82,0.00,,,0.04,0.00,VWS V14.01,2013-02-12 03:07:00,
2013-02-11 22:12:00,60.9,55.4,29.84,West,271,4.0,4.0,82,0.00,,,0.04,0.00,VWS V14.01,2013-02-12 03:12:00,
2013-02-11 22:17:00,60.9,55.4,29.83,WSW,245,4.0,5.0,82,0.00,,,0.04,0.00,VWS V14.01,2013-02-12 03:17:00,
2013-02-11 22:22:00,60.7,55.2,29.83,West,263,6.0,9.0,82,0.00,,,0.04,0.00,VWS V14.01,2013-02-12 03:22:00,
2013-02-11 22:27:00,60.5,55.0,29.83,West,266,7.0,9.0,82,0.00,,,0.04,0.00,VWS V14.01,2013-02-12 03:27:00,
2013-02-11 22:32:00,60.4,54.9,29.83,West,260,4.0,5.0,82,0.00,,,0.04,0.00,VWS V14.01,2013-02-12 03:32:00,
2013-02-11 22:37:00,60.4,54.9,29.83,WSW,243,9.0,12.0,82,0.00,,,0.04,0.00,VWS V14.01,2013-02-12 03:37:00,
2013-02-11 22:42:00,60.4,54.9,29.83,West,270,5.0,7.0,82,0.00,,,0.04,0.00,VWS V14.01,2013-02-12 03:42:00,
2013-02-11 22:47:00,60.2,54.7,29.83,WSW,252,6.0,11.0,82,0.00,,,0.04,0.00,VWS V14.01,2013-02-12 03:47:00,
2013-02-11 22:52:00,60.2,54.7,29.83,SW,228,7.0,7.0,82,0.00,,,0.04,0.00,VWS V14.01,2013-02-12 03:52:00,
2013-02-11 22:57:00,60.1,54.6,29.83,SW,221,11.0,11.0,82,0.00,,,0.04,0.00,VWS V14.01,2013-02-12 03:57:00,
2013-02-11 23:02:00,60.1,54.6,29.84,SW,232,0.0,3.0,82,0.00,,,0.04,0.00,VWS V14.01,2013-02-12 04:02:00,
2013-02-11 23:07:00,59.9,54.4,29.84,WSW,249,6.0,8.0,82,0.00,,,0.04,0.00,VWS V14.01,2013-02-12 04:07:00,
2013-02-11 23:12:00,59.9,54.4,29.84,West,273,10.0,13.0,82,0.00,,,0.04,0.00,VWS V14.01,2013-02-12 04:12:00,
2013-02-11 23:17:00,59.8,54.3,29.83,WSW,246,6.0,6.0,82,0.00,,,0.04,0.00,VWS V14.01,2013-02-12 04:17:00,
2013-02-11 23:22:00,59.6,54.1,29.83,WSW,246,10.0,12.0,82,0.00,,,0.04,0.00,VWS V14.01,2013-02-12 04:22:00,
2013-02-11 23:27:00,59.5,54.0,29.83,West,264,7.0,10.0,82,0.00,,,0.04,0.00,VWS V14.01,2013-02-12 04:27:00,
2013-02-11 23:32:00,59.5,54.0,29.83,West,278,6.0,9.0,82,0.00,,,0.04,0.00,VWS V14.01,2013-02-12 04:32:00,
2013-02-11 23:37:00,59.3,53.8,29.83,West,262,6.0,7.0,82,0.00,,,0.04,0.00,VWS V14.01,2013-02-12 04:37:00,
2013-02-11 23:42:00,59.2,54.0,29.83,WSW,242,10.0,11.0,83,0.00,,,0.04,0.00,VWS V14.01,2013-02-12 04:42:00,
2013-02-11 23:47:00,59.2,53.7,29.83,WSW,257,4.0,6.0,82,0.00,,,0.04,0.00,VWS V14.01,2013-02-12 04:47:00,
2013-02-11 23:52:00,59.0,53.8,29.83,WSW,252,6.0,6.0,83,0.00,,,0.04,0.00,VWS V14.01,2013-02-12 04:52:00,
2013-02-11 23:57:00,58.9,53.4,29.83,SW,232,4.0,7.0,82,0.00,,,0.04,0.00,VWS V14.01,2013-02-12 04:57:00,